Home   Weather   Bodø   Past weeks

Flag for Norway Past Weather in Bodø, Norway — Yesterday and Last 2 Weeks

Now
52 °F

Passing clouds.


Feels Like: 51 °F
Forecast: 49 / 53 °F
Wind: 5 mph from Northeast

Location: Bodo Vi

Current Time: Sep 28, 2016 at 8:59:09 PM

Latest Report: Sep 28, 2016 at 8:20 PM


Visibility: N/A

Pressure: 29.21 "Hg

Humidity: 82%

Dew Point: 46 °F

Location of BodøLocation

Past Weather in Bodø — Graph

°F

Bodø Temperature Yesterday

Maximum temperature yesterday: 55 °F (at 9:50 PM)
Minimum temperature yesterday: 48 °F (at 5:50 AM)
Average temperature yesterday: 52 °F

High & Low Weather Summary for the Past Weeks

 TemperatureHumidityPressure
High63 °F (Sep 13, 7:20 PM)100% (Sep 14, 12:20 PM)30.24 "Hg (Sep 14, 12:20 PM)
Low43 °F (Sep 15, 10:50 PM)55% (Sep 16, 2:20 PM)29.21 "Hg (Sep 28, 5:20 PM)
Average55 °F81%30.02 "Hg
* Reported Sep 13 7:20 PM — Sep 28 7:20 PM, Bodø, Weather by CustomWeather, © 2016

Note: Actual official high and low records may vary slightly from our data, if they occured in-between our weather recording intervals... More about our weather records

Advertising

Bodø Weather History for the Previous 24 Hours

Scroll right to see more
 ConditionsComfort  
Time TempWeatherWind HumidityBarometerVisibility
7:20 PM
Wed, Sep 28
52 °FPartly cloudy.2 mph77%29.21 "HgN/A
6:50 PM52 °FPassing clouds.3 mph82%29.21 "HgN/A
6:20 PM52 °FPartly sunny.5 mph82%29.21 "HgN/A
5:50 PM54 °FScattered clouds.2 mph77%29.21 "HgN/A
5:20 PM54 °FPassing clouds.3 mph82%29.21 "HgN/A
4:50 PM55 °FPassing clouds.3 mph77%29.24 "HgN/A
4:20 PM57 °FPassing clouds.7 mph72%29.24 "HgN/A
3:50 PM57 °FScattered clouds.9 mph72%29.24 "HgN/A
3:20 PM57 °FPartly sunny.10 mph72%29.24 "HgN/A
2:50 PM57 °FScattered clouds.10 mph67%29.24 "HgN/A
2:20 PM57 °FScattered clouds.10 mph67%29.24 "HgN/A
1:50 PM57 °FPartly sunny.7 mph72%29.24 "HgN/A
1:20 PM57 °FPartly sunny.8 mph67%29.24 "HgN/A
12:50 PM55 °FSprinkles. Partly sunny.8 mph72%29.27 "HgN/A
12:20 PM55 °FPartly sunny.6 mph72%29.27 "HgN/A
11:50 AM55 °FBroken clouds.5 mph72%29.27 "HgN/A
11:20 AM55 °FBroken clouds.6 mph72%29.27 "HgN/A
10:50 AM55 °FBroken clouds.5 mph72%29.27 "HgN/A
10:20 AM55 °FPartly sunny.5 mph67%29.30 "HgN/A
9:50 AM55 °FBroken clouds.1 mph67%29.30 "HgN/A
9:20 AM55 °FBroken clouds.7 mph67%29.30 "HgN/A
8:50 AM55 °FPartly sunny.6 mph67%29.30 "HgN/A
8:20 AM55 °FPartly sunny.12 mph67%29.30 "HgN/A
7:50 AM57 °FPartly sunny.14 mph63%29.30 "HgN/A
7:20 AM57 °FPartly sunny.18 mph63%29.33 "HgN/A
6:50 AM57 °FPassing clouds.15 mph63%29.33 "HgN/A
6:20 AM57 °FPartly cloudy.18 mph63%29.33 "HgN/A
5:50 AM57 °FPartly cloudy.18 mph67%29.36 "HgN/A
5:20 AM55 °FPartly cloudy.20 mph72%29.36 "HgN/A
4:50 AM55 °FPassing clouds.22 mph72%29.39 "HgN/A
3:50 AM57 °FPartly cloudy.23 mph59%29.42 "HgN/A
2:50 AM57 °FPartly cloudy.25 mph59%29.47 "HgN/A
1:50 AM57 °FPartly cloudy.23 mph59%29.50 "HgN/A
12:50 AM57 °FPassing clouds.16 mph59%29.53 "HgN/A
11:50 PM
Tue, Sep 27
55 °FPassing clouds.17 mph63%29.56 "HgN/A
11:20 PM55 °FPassing clouds.13 mph63%29.59 "HgN/A
10:50 PM55 °FPassing clouds.16 mph63%29.62 "HgN/A
10:20 PM55 °FPassing clouds.12 mph67%29.65 "HgN/A
9:50 PM55 °FPassing clouds.13 mph72%29.65 "HgN/A
9:20 PM54 °FPassing clouds.13 mph77%29.68 "HgN/A
8:50 PM52 °FPassing clouds.14 mph82%29.71 "HgN/A
8:20 PM52 °FPassing clouds.13 mph88%29.74 "HgN/A
Weather by CustomWeather, © 2016

See weather overviewHow to use our weather pages